Location: Kavul?ru
(16.6288°N, 80.5832°E)
Time: 07:12:36
(UTC+00:00)

Cosmos 2228 - Pass Details

Date: 15 May 2026
Orbit: 562 x 587 km, 82.5° (Epoch: 5 June)

Event Time Altitude Azimuth Distance (km) Brightness Sun altitude
Exits shadow 14:48:21 79° 334° (NNW) 582 2.9 -24.1°
Drops below altitude 10° 14:52:14 10° 3° (N) 1,858 5.8 -24.9°
Sets 14:54:24 0° 4° (N) 2,752 6.7 -25.3°
